Regional Weather Roundup
Issued by NWS

Home | Current Version | Previous Version | Graphics & Text | Print | Product List | Glossary On
Versions: 1 2 3 4 5 6 7 8 9 10 11 12 13 14 15 16 17 18 19 20 21 22 23 24 25 26 27 28 29 30 31 32 33 34 35 36 37 38 39 40 41 42 43 44 45 46 47 48 49 50
355
ASUS43 KOAX 132302
RWRNE

WEATHER ROUNDUP FOR NEBRASKA
NATIONAL WEATHER SERVICE OMAHA NE
500 PM CST SAT FEB 13 2016

NOTES: SATELLITE DATA IS BEING USED TO AUGMENT CLOUD COVER ABOVE
       12000 FEET.
       "FAIR" INDICATES FEW OR NO CLOUDS BELOW 12,000 FEET WITH NO
       SIGNIFICANT WEATHER AND/OR OBSTRUCTIONS TO VISIBILITY.

  * THESE STATIONS DO NOT REPORT WEATHER SUCH AS RAIN...SNOW OR FOG.

NEZ001>004-019>022-054>056-140000-
NEBRASKA PANHANDLE

CITY           SKY/WX    TMP DP  RH WIND       PRES   REMARKS
SCOTTSBLUFF    CLOUDY    57  23  26 W13       29.82F
ALLIANCE       CLOUDY    43  33  68 S15       29.80F
CHADRON        SUNNY     61  30  31 SW20G25   29.72F
SIDNEY         CLOUDY    44  37  76 S13       29.87F
$$

NEZ057>060-069>072-079>082-140000-
SOUTHWEST NEBRASKA

CITY           SKY/WX    TMP DP  RH WIND       PRES   REMARKS
NORTH PLATTE   CLOUDY    26  21  81 S13       30.00F WCI  15
IMPERIAL       CLOUDY    30  27  88 S13       29.96F WCI  20
MCCOOK         CLOUDY    28  23  81 S13       30.04F HAZE    WCI  17
$$

NEZ005>010-023>029-035>040-094-140000-
NORTH CENTRAL NEBRASKA

CITY           SKY/WX    TMP DP  RH WIND       PRES   REMARKS
VALENTINE      CLOUDY    28  23  81 S22G29    29.91F WCI  14
BROKEN BOW     CLOUDY    22  14  71 S20       30.05F WCI   7
ORD            CLOUDY    22   9  57 S16G25    30.07F WCI   8
$$

NEZ041-046>049-061>064-073>077-083>087-140000-
SOUTH CENTRAL NEBRASKA

CITY           SKY/WX    TMP DP  RH WIND       PRES   REMARKS
GRAND ISLAND   CLOUDY    20   8  60 SE16      30.18S WCI   6
HASTINGS       CLOUDY    22   7  52 S10       30.15F WCI  11
KEARNEY *      CLOUDY    21   9  58 SE16      30.13F WCI   7
$$

NEZ011>018-030>034-042>045-140000-
NORTHEAST NEBRASKA

CITY           SKY/WX    TMP DP  RH WIND       PRES   REMARKS
NORFOLK        CLOUDY    18   8  65 SE15      30.18F WCI   4
COLUMBUS *     CLOUDY    19   1  45 SE9       30.23F WCI   9
TEKAMAH        CLOUDY    16   6  65 SE16      30.32F WCI   1
$$

NEZ050>053-065>068-078-088>093-140000-
SOUTHEAST NEBRASKA

CITY           SKY/WX    TMP DP  RH WIND       PRES   REMARKS
LINCOLN        CLOUDY    20   6  55 SE14      30.28F WCI   7
OMAHA EPPLEY   CLOUDY    19   3  49 SE14      30.34F WCI   6
FALLS CITY     CLOUDY    21   2  43 SE14      30.32F WCI   8
$$

NEZ044-045-051>053-067-140000-
OMAHA AREA

CITY           SKY/WX    TMP DP  RH WIND       PRES   REMARKS
OMAHA EPPLEY   CLOUDY    19   3  49 SE14      30.34F WCI   6
OFFUTT AFB     CLOUDY    19   3  49 E13       30.32F WCI   6
$$




USA.gov is the U.S. government's official web portal to all federal, state and local government web resources and services.